Pottstown, PA

5:06 AM EDT on June 28, 2017 (GMT -0400)
Pottstown Limerick

Weather History for KPTW - September, 2013

Change the Weather History Date:

Sunday, September 29, 2013

  Actual Average (KRDG) Record (KRDG)
Temperature  
Mean Temperature 58 °F -  
Max Temperature 73 °F 68 °F 88 °F (1921)
Min Temperature 46 °F 47 °F 34 °F (2000)
Degree Days  
Heating Degree Days 6    
Growing Degree Days 8 (Base 50)    
Moisture  
Dew Point 50 °F    
Average Humidity 77    
Maximum Humidity 97    
Minimum Humidity 49    
Precipitation  
Precipitation 0.00 in - - ()
Sea Level Pressure  
Sea Level Pressure 30.16 in    
Wind  
Wind Speed 1 mph (NE)    
Max Wind Speed 7 mph    
Max Gust Speed -    
Visibility 10 miles    
Events      
Averages and records for this station are not official NWS values.
T = Trace of Precipitation, MM = Missing Value Source: NWS Daily Summary

Daily Weather History Graph

Daily Weather History Graph

Search for Another Location

Airport or City:

Trip Planner

Search our weather history database for the weather conditions in past years. The results will help you decide how hot, cold, wet, or windy it might be!

Date:

Astronomy

Sep. 29, 2013 Rise Set
Actual Time 6:56 AM EDT 6:47 PM EDT
Civil Twilight 6:29 AM EDT 7:14 PM EDT
Nautical Twilight 5:58 AM EDT 7:45 PM EDT
Astronomical Twilight 5:26 AM EDT 8:17 PM EDT
Moon 1:35 AM EDT (9/29) 3:42 PM EDT (9/29)
Length of Visible Light 12h 44m
Length of Day
11h 50m
Waning Crescent, 27% of the Moon is Illuminated
Sep 29
Waning Crescent
Oct 4
New
Oct 11
First Quarter
Oct 18
Full
Oct 26
Last Quarter

Hourly Weather History & Observations

Time (EDT) Temp. Dew Point Humidity Pressure Visibility Wind Dir Wind Speed Gust Speed Precip Events Conditions
12:54 AM 48.9 °F 48.0 °F 97% 30.25 in 10.0 mi Calm Calm - N/A   Clear
1:54 AM 48.0 °F 46.9 °F 96% 30.23 in 10.0 mi Calm Calm - N/A   Clear
2:54 AM 48.0 °F 46.0 °F 93% 30.22 in 10.0 mi Calm Calm - N/A   Clear
3:54 AM 46.9 °F 45.0 °F 93% 30.20 in 10.0 mi Calm Calm - N/A   Clear
4:54 AM 46.0 °F 45.0 °F 96% 30.20 in 10.0 mi Calm Calm - N/A   Clear
5:54 AM 46.0 °F 44.1 °F 93% 30.21 in 10.0 mi Calm Calm - N/A   Clear
6:54 AM 46.0 °F 44.1 °F 93% 30.21 in 10.0 mi Calm Calm - N/A   Partly Cloudy
7:54 AM 48.9 °F 46.9 °F 93% 30.22 in 10.0 mi Calm Calm - N/A   Clear
8:54 AM 55.9 °F 52.0 °F 87% 30.22 in 10.0 mi Calm Calm - N/A   Clear
9:54 AM 63.0 °F 55.0 °F 75% 30.22 in 10.0 mi Variable 3.5 mph - N/A   Clear
10:54 AM 66.0 °F 54.0 °F 65% 30.21 in 10.0 mi Variable 3.5 mph - N/A   Clear
11:54 AM 66.9 °F 52.0 °F 59% 30.19 in 10.0 mi Variable 5.8 mph - N/A   Partly Cloudy
12:54 PM 71.1 °F 52.0 °F 51% 30.16 in 10.0 mi Variable 3.5 mph - N/A   Overcast
1:54 PM 70.0 °F 50.0 °F 49% 30.15 in 10.0 mi Variable 4.6 mph - N/A   Scattered Clouds
2:54 PM 71.1 °F 52.0 °F 51% 30.13 in 10.0 mi Variable 4.6 mph - N/A   Overcast
3:54 PM 70.0 °F 51.1 °F 51% 30.11 in 10.0 mi NNE 6.9 mph - N/A   Overcast
4:54 PM 70.0 °F 51.1 °F 51% 30.10 in 10.0 mi NE 5.8 mph - N/A   Overcast
5:54 PM 69.1 °F 50.0 °F 51% 30.09 in 10.0 mi Variable 3.5 mph - N/A   Overcast
6:54 PM 64.0 °F 52.0 °F 65% 30.09 in 10.0 mi Calm Calm - N/A   Clear
7:54 PM 57.9 °F 52.0 °F 81% 30.11 in 10.0 mi Calm Calm - N/A   Clear
8:54 PM 55.0 °F 52.0 °F 89% 30.10 in 10.0 mi Calm Calm - N/A   Clear
9:54 PM 54.0 °F 51.1 °F 90% 30.10 in 10.0 mi Calm Calm - N/A   Scattered Clouds
10:54 PM 54.0 °F 51.1 °F 90% 30.10 in 10.0 mi Calm Calm - N/A   Partly Cloudy
11:54 PM 51.1 °F 48.9 °F 92% 30.10 in 10.0 mi Calm Calm - N/A   Clear